This is the latest recevied weather packets stored in our database for station/object KO6HRZ. If no packets are shown the sender has not sent any weather packets the latest 10 day(s).
| Time | Temp. | Humidity | Pressure | Rain* | Wind** | Luminosity | Snow |
|---|---|---|---|---|---|---|---|
| 1788232985 | 17.22° C | 76% | 1010 hPa | 0 mm | - | 0 W/m² | - |
| 1788232382 | 17.22° C | 75% | 1010 hPa | 0 mm | - | 0 W/m² | - |
| 1788231800 | 17.78° C | 75% | 1009.8 hPa | 0 mm | - | 0 W/m² | - |
| 1788231183 | 17.78° C | 75% | 1009.9 hPa | 0 mm | - | 0 W/m² | - |
| 1788230583 | 17.78° C | 74% | 1009.7 hPa | 0 mm | - | 1 W/m² | - |
| 1788229982 | 18.33° C | 73% | 1009.8 hPa | 0 mm | - | 5 W/m² | - |
| 1788229379 | 18.89° C | 72% | 1009.8 hPa | 0 mm | - | 10 W/m² | - |
| 1788228775 | 18.89° C | 71% | 1009.7 hPa | 0 mm | - | 14 W/m² | - |
| 1788228171 | 19.44° C | 69% | 1009.8 hPa | 0 mm | - | 18 W/m² | - |
| 1788227568 | 20° C | 68% | 1009.6 hPa | 0 mm | - | 29 W/m² | - |
| 1788226963 | 20.56° C | 65% | 1009.4 hPa | 0 mm | - | 39 W/m² | - |
| 1788226360 | 21.11° C | 64% | 1009.5 hPa | 0 mm | - | 54 W/m² | - |
| 1788225755 | 21.67° C | 61% | 1009.5 hPa | 0 mm | - | 68 W/m² | - |
| 1788225152 | 22.22° C | 60% | 1009.3 hPa | 0 mm | - | 103 W/m² | - |
| 1788224553 | 22.22° C | 60% | 1009.4 hPa | 0 mm | - | 76 W/m² | - |
| 1788223953 | 23.33° C | 57% | 1009.4 hPa | 0 mm | - | 53 W/m² | - |
| 1788223347 | 23.33° C | 57% | 1009.4 hPa | 0 mm | - | 79 W/m² | - |
| 1788222747 | 23.89° C | 56% | 1009.4 hPa | 0 mm | - | 246 W/m² | - |
| 1788222148 | 23.89° C | 55% | 1009.4 hPa | 0 mm | - | 111 W/m² | - |
| 1788221544 | 25° C | 53% | 1009.5 hPa | 0 mm | - | 62 W/m² | - |
| 1788220940 | 24.44° C | 54% | 1009.6 hPa | 0 mm | - | 73 W/m² | - |
| 1788220335 | 25.56° C | 52% | 1009.5 hPa | 0 mm | - | 65 W/m² | - |
| 1788219735 | 25.56° C | 50% | 1009.5 hPa | 0 mm | - | 421 W/m² | - |
| 1788219132 | 25.56° C | 50% | 1009.6 hPa | 0 mm | - | 437 W/m² | - |
| 1788218529 | 25.56° C | 51% | 1009.8 hPa | 0 mm | - | 357 W/m² | - |
* Rain latest hour (hover to see other rain measurements)
** Current wind speed in m/s (hover to see current wind gust speed)